Flag for Germany Weather past 2 weeks in Leipzig, Saxony, Germany

Now
66 °F

Fog.


Feels Like: 66 °F
Forecast: 60 / 74 °F
Wind: 8 mph from Northwest

Location: Leipzig-Schkeuditz

Current Time: Jul 30, 2014 at 7:37:02 AM

Latest Report: Jul 30, 2014 at 7:20 AM


Visibility: 2 mi

Pressure: 29.71 "Hg

Humidity: 100%

Dew point: 66 °F

Location of LeipzigLocation

Historic Weather in Leipzig — Graph

°F

Leipzig temperature yesterday

Maximum temperature yesterday: 79 °F (at 1:20 PM)
Minimum temperature yesterday: 64 °F (at 7:20 PM)
Average temperature yesterday: 70 °F

Past Weeks' High & Low Weather Summary

 TemperatureHumidityPressure
High93 °F (Jul 20, 3:50 PM)100% (Jul 24, 8:50 PM)30.18 "Hg (Jul 24, 8:50 PM)
Low57 °F (Jul 16, 4:50 AM)22% (Jul 19, 6:50 PM)29.71 "Hg (Jul 29, 5:20 PM)
Average72 °F69%29.97 "Hg
* Reported Jul 15 6:20 AM — Jul 30 6:20 AM, Leipzig, Weather by CustomWeather, © 2014

Note: Actual official high and low records may vary slightly from our data, if they occured in-between our weather recording intervals... More about our weather records

Advertising

Leipzig weather history for previous 24 hours

 ConditionsComfort  
Time TempWeatherWind HumidityBarometerVisibility
6:20 AM
Jul 30
66 °FDrizzle. Fog.7 mph100%29.74 "Hg1 mi
5:50 AM66 °FFog.7 mph100%29.74 "Hg1 mi
5:20 AM66 °FFog.6 mph100%29.74 "Hg2 mi
4:50 AM66 °FFog.5 mph100%29.74 "Hg2 mi
4:20 AM66 °FFog.5 mph100%29.71 "Hg2 mi
3:50 AM66 °FFog.5 mph100%29.71 "Hg2 mi
3:20 AM66 °FFog.5 mph100%29.71 "Hg3 mi
2:50 AM66 °FFog.7 mph100%29.71 "Hg3 mi
2:20 AM66 °FFog.8 mph100%29.71 "Hg3 mi
1:50 AM66 °FFog.6 mph100%29.74 "Hg3 mi
1:20 AM66 °FFog.6 mph100%29.74 "Hg3 mi
12:50 AM66 °FFog.3 mph100%29.74 "Hg3 mi
12:20 AM66 °FPassing clouds.3 mph100%29.74 "Hg4 mi
11:50 PM
Jul 29
66 °FPassing clouds.6 mph100%29.74 "Hg4 mi
11:20 PM66 °FPassing clouds.6 mph100%29.74 "Hg4 mi
10:50 PM66 °FPartly cloudy.7 mph100%29.74 "Hg4 mi
10:20 PM66 °FPartly cloudy.6 mph100%29.74 "Hg4 mi
9:50 PM66 °FBroken clouds.2 mph100%29.74 "Hg4 mi
9:20 PM66 °FBroken clouds.3 mph100%29.74 "Hg4 mi
8:50 PM66 °FPartly sunny.1 mph100%29.71 "Hg4 mi
8:20 PM66 °FSprinkles. Broken clouds.6 mph100%29.71 "HgN/A
7:50 PM66 °FRain showers. Broken clouds.6 mph100%29.71 "HgN/A
7:20 PM64 °FThunderstorms. Partly sunny.9 mph100%29.74 "Hg3 mi
6:50 PM66 °FMild.22 mph88%29.74 "Hg1 mi
6:20 PM70 °FStrong thunderstorms. Partly sunny.7 mph94%29.74 "HgN/A
5:50 PM72 °FThunderstorms. Broken clouds.16 mph83%29.74 "HgN/A
5:20 PM77 °FThundershowers. Partly sunny.6 mph74%29.71 "HgN/A
4:50 PM77 °FBroken clouds.8 mph74%29.74 "HgN/A
4:20 PM77 °FSprinkles. Broken clouds.8 mph69%29.74 "HgN/A
3:50 PM79 °FBroken clouds.12 mph65%29.74 "HgN/A
3:20 PM79 °FPartly sunny.10 mph65%29.74 "HgN/A
2:50 PM79 °FBroken clouds.10 mph65%29.74 "HgN/A
2:20 PM79 °FBroken clouds.7 mph65%29.77 "HgN/A
1:50 PM79 °FBroken clouds.7 mph70%29.77 "HgN/A
1:20 PM79 °FBroken clouds.8 mph70%29.77 "HgN/A
12:50 PM77 °FBroken clouds.7 mph74%29.80 "Hg5 mi
12:20 PM75 °FBroken clouds.7 mph78%29.80 "Hg5 mi
11:50 AM75 °FBroken clouds.7 mph78%29.80 "Hg4 mi
11:20 AM73 °FBroken clouds.6 mph83%29.80 "Hg4 mi
10:50 AM72 °FPartly sunny.6 mph88%29.80 "Hg5 mi
10:20 AM73 °FPartly sunny.5 mph83%29.80 "Hg5 mi
9:50 AM72 °FPartly sunny.3 mph88%29.80 "Hg5 mi
9:20 AM70 °FPartly sunny.3 mph94%29.80 "HgN/A
8:50 AM68 °FBroken clouds.7 mph94%29.80 "HgN/A
8:20 AM68 °FBroken clouds.5 mph94%29.80 "HgN/A
7:50 AM68 °FSunny.3 mph94%29.80 "Hg10 mi
7:20 AM68 °FSunny.1 mph94%29.80 "Hg10 mi
Weather by CustomWeather, © 2014

See weather overviewHow to use our weather pages